Wind_Speed
37 37 39 41 41 41 41 41 41 41 41 42 43 44 45 46 46 46 47 47 47 45 41 37 34 32 30 29 28 28 29 30 31 32 33 34 34 35 36 37 38 39 39 40 40 40 41 43 43 43 44 44 45 45 46 47 48 49 50 50 51 51 51 50 51 52 53 55 54 53 54 55 54 52 51 50 50 50 52 54 55 56 59 63 65 67 71
36 37 39 40 39 39 39 39 40 41 42 43 44 45 46 46 47 47 47 47 44 41 37 34 32 30 29 28 28 29 30 31 32 33 34 35 36 37 37 38 39 40 40 41 41 41 41 43 44 44 45 45 46 46 47 48 48 49 50 51 52 52 53 51 50 51 52 53 53 52 52 53 52 48 48 50 53 55 57 58 60 61 63 67 69 70 74
36 38 38 38 38 38 38 39 41 42 43 44 45 46 46 47 47 47 46 44 40 36 34 32 30 29 29 29 29 30 32 33 34 34 35 36 37 37 38 39 40 40 41 42 42 42 42 43 44 44 45 46 46 47 48 48 49 50 50 51 52 52 53 52 50 50 50 51 51 49 47 48 48 47 47 50 54 58 60 62 64 66 67 70 73 73 76
38 38 38 37 37 38 39 41 42 43 44 45 45 46 47 47 47 46 43 39 35 33 31 29 29 28 29 30 31 32 33 34 35 35 36 37 38 38 39 40 40 41 42 42 43 44 44 44 44 45 46 47 47 48 49 49 50 50 50 51 51 51 52 52 51 51 51 49 48 46 43 43 46 48 51 53 56 60 63 65 67 69 70 73 77 79 80
38 37 37 37 38 39 41 42 43 44 45 45 46 46 47 47 45 42 38 35 32 31 29 28 29 29 30 31 32 33 34 35 36 36 37 38 39 40 40 41 41 42 42 43 44 45 46 46 45 46 46 47 47 48 49 49 50 50 50 50 49 49 51 51 51 51 49 46 45 43 42 44 47 51 55 57 60 63 66 69 71 73 74 76 80 84 86
37 37 37 38 40 41 42 43 44 45 45 45 46 47 46 44 40 37 34 32 30 29 28 29 30 30 31 32 33 34 35 36 37 38 39 39 40 41 42 42 42 43 43 44 45 46 46 47 46 46 47 47 48 49 50 50 50 50 50 49 49 49 50 50 49 49 46 44 44 44 45 48 51 55 59 61 63 67 69 73 75 77 79 81 83 88 92
36 37 39 40 42 43 43 44 45 45 45 46 46 45 42 38 35 33 31 29 29 29 29 30 31 32 33 34 34 35 37 38 39 40 40 41 41 42 43 43 44 44 44 45 45 45 46 46 47 47 48 49 50 50 51 51 51 50 50 50 49 48 47 45 44 45 45 45 47 47 49 53 56 59 63 65 67 70 73 76 79 81 84 86 88 92 95
38 40 41 42 43 43 44 44 45 45 46 45 43 40 36 33 31 30 29 28 29 30 31 32 33 33 34 35 36 37 38 39 40 40 41 42 43 43 44 44 44 45 45 45 45 45 46 46 47 48 50 51 51 51 51 50 50 49 48 48 46 43 42 41 41 44 46 48 51 52 53 56 60 64 67 69 71 73 76 80 83 85 88 91 94 97 99
40 41 42 42 43 44 44 44 45 45 44 41 37 34 31 30 29 28 29 29 30 31 33 33 34 35 36 37 38 39 40 41 41 42 42 43 43 44 44 45 45 45 45 45 46 46 47 48 49 50 51 51 51 50 49 48 47 46 45 43 41 39 39 40 42 45 49 51 54 56 57 59 63 67 71 73 74 77 80 84 87 89 91 94 98 100 102
41 41 42 43 43 43 44 44 44 42 38 34 31 29 28 28 28 29 30 31 32 32 34 35 35 36 37 38 39 40 41 42 43 43 43 44 44 44 44 45 45 45 46 46 47 48 49 49 50 51 51 50 49 47 45 44 42 41 40 39 38 39 40 42 45 48 52 54 57 60 61 63 66 70 74 76 78 81 85 88 91 93 96 99 101 104 105
41 41 42 42 42 43 43 42 39 35 31 29 27 27 27 28 29 30 31 32 33 34 35 36 37 38 39 40 41 42 42 43 43 44 44 44 45 45 45 46 46 47 47 48 49 49 50 50 50 50 49 48 46 44 42 40 38 38 38 38 39 41 44 46 48 51 54 57 60 63 66 68 71 75 78 81 83 85 88 91 94 97 100 103 106 107 108
40 40 41 42 41 40 38 35 31 28 27 26 27 27 28 29 30 31 32 33 34 35 36 38 38 39 40 41 42 42 43 43 44 44 45 45 46 46 47 47 47 48 48 49 49 49 49 49 48 47 46 44 42 40 38 37 37 38 39 40 42 45 48 51 53 55 58 61 64 66 69 73 77 80 83 86 88 90 92 95 98 101 103 106 108 110 111
39 40 40 38 36 33 30 27 26 26 26 27 28 29 29 30 31 32 33 35 36 37 38 39 39 40 41 42 42 43 43 44 44 45 46 46 47 47 47 47 47 47 47 46 46 46 46 45 44 43 42 40 38 37 37 37 39 40 42 44 47 49 52 55 57 60 63 65 68 70 72 76 80 84 87 90 93 95 96 97 100 103 105 107 108 111 114
37 36 34 31 29 27 26 26 26 27 28 28 29 30 31 32 33 34 35 36 37 38 39 40 40 41 41 42 43 43 44 44 44 45 45 45 45 45 44 44 44 43 43 43 43 42 42 41 41 41 40 38 37 37 39 40 43 45 47 49 51 54 57 59 62 64 67 69 72 75 77 80 84 88 90 92 95 98 99 98 100 103 106 108 111 113 117
31 29 27 26 26 26 26 27 27 28 29 29 30 31 32 33 34 35 36 37 38 39 40 40 40 41 41 42 43 43 43 43 43 43 42 42 42 42 42 41 41 41 40 40 40 40 39 39 38 38 38 38 37 38 40 43 46 49 51 53 56 58 61 63 66 68 71 74 76 79 82 85 88 91 92 94 97 100 102 103 105 108 112 114 116 118 121
26 26 26 26 26 27 27 28 28 29 30 31 31 32 33 34 35 36 37 38 39 39 40 40 40 41 41 41 42 41 41 41 41 40 40 40 40 40 40 40 39 39 39 39 39 38 38 38 37 37 38 39 40 41 43 45 48 52 55 58 60 63 66 68 71 73 76 79 81 83 84 87 90 91 93 96 100 103 106 108 110 114 118 121 123 125 127
25 26 26 27 27 27 28 28 29 30 31 32 32 33 34 35 36 37 38 38 39 39 40 40 40 40 40 40 40 39 39 39 39 39 39 39 39 39 39 39 38 38 37 37 37 37 37 37 38 38 40 41 43 45 47 49 52 55 58 62 65 67 70 73 76 78 80 82 83 85 87 89 92 94 96 99 104 108 111 113 115 118 121 125 128 129 130
25 26 26 27 27 28 28 29 30 31 32 33 33 34 35 36 37 37 38 38 38 39 39 39 39 39 38 38 37 37 37 37 37 38 38 38 38 38 38 38 37 37 37 37 37 37 38 39 40 40 42 44 47 49 52 54 56 59 62 65 68 71 73 75 78 80 82 83 85 88 90 93 97 99 101 104 107 111 115 118 120 121 123 125 127 128 127
25 26 26 27 27 28 29 30 31 32 32 33 34 35 36 36 37 37 37 38 38 38 38 38 37 37 36 36 36 36 36 36 36 37 37 37 37 37 37 37 36 36 37 37 38 38 39 41 43 44 45 47 50 53 56 58 60 62 65 67 69 71 73 75 78 81 84 86 89 92 95 98 100 103 106 109 111 114 117 120 122 123 123 122 122 122 121
25 26 26 27 28 29 30 31 32 32 33 34 34 35 36 36 36 36 37 37 37 36 36 35 35 35 34 34 35 35 35 35 35 35 35 36 36 35 36 36 36 37 38 38 40 41 42 43 45 47 48 50 52 54 57 60 62 64 66 68 70 73 75 78 81 84 87 90 93 96 99 101 104 107 109 112 115 117 119 120 121 122 121 120 118 118 117
25 26 27 28 29 30 31 31 32 32 33 34 34 35 35 35 36 36 35 35 35 34 34 33 33 33 33 33 34 34 34 34 34 34 34 35 35 35 35 36 36 37 38 39 40 42 43 45 46 48 50 52 54 56 58 61 64 66 68 71 74 76 79 82 85 88 91 94 97 101 104 107 109 111 113 115 117 119 119 119 119 119 118 118 117 117 116
26 27 28 29 29 30 31 31 32 32 33 33 34 34 34 33 33 33 33 33 32 32 32 32 32 32 32 33 33 33 33 34 34 34 34 34 34 35 36 36 37 38 39 40 41 43 45 46 48 50 52 54 57 59 61 63 66 69 72 75 78 81 83 86 90 94 96 99 102 106 109 112 114 116 117 118 119 119 119 118 118 117 117 116 116 114 113
27 27 28 29 29 30 30 31 31 32 32 33 33 33 32 32 31 30 30 30 30 30 31 31 31 32 32 32 33 33 33 33 33 34 34 34 35 36 36 37 39 40 41 42 44 45 47 49 51 53 55 57 60 63 65 68 71 73 76 79 82 86 89 92 95 99 102 105 108 111 114 116 117 118 119 119 118 117 117 117 117 116 115 114 113 112 111
27 28 28 29 29 30 30 30 31 31 31 31 31 31 30 29 29 28 29 29 29 30 30 31 31 31 32 32 32 32 32 33 33 34 34 35 36 37 39 40 41 42 44 45 47 48 50 52 55 57 59 61 64 67 70 72 75 78 81 84 87 91 94 97 101 104 107 110 112 114 116 117 117 117 116 116 115 115 115 114 115 114 114 113 111 110 109
27 27 28 28 29 29 29 30 30 30 30 29 29 28 28 28 27 28 28 28 29 29 30 31 31 31 31 32 32 32 32 33 34 35 36 37 38 39 41 42 43 45 46 48 50 52 54 56 58 61 63 66 68 71 74 78 81 84 87 91 94 97 99 102 105 108 110 112 113 114 115 115 115 114 113 112 112 112 112 112 111 112 112 111 110 109 109
26 27 27 28 28 28 28 28 28 28 28 27 27 27 27 27 27 27 28 28 29 29 30 30 30 31 31 31 32 32 33 34 35 36 37 39 40 41 42 44 46 47 49 51 53 55 57 59 62 65 68 71 74 77 80 84 87 90 93 96 99 102 104 106 108 109 111 112 112 111 110 110 110 110 110 109 109 109 109 109 109 109 109 108 108 109 109
25 25 25 25 26 26 26 26 26 26 26 26 26 27 27 27 27 27 28 28 29 29 30 30 30 31 31 32 33 34 35 36 37 38 39 40 41 43 45 46 48 50 52 54 56 58 61 63 66 70 73 76 79 83 86 89 93 95 98 101 103 105 107 108 109 109 109 109 108 107 105 104 105 105 106 106 106 106 107 107 107 107 107 107 107 108 109
23 23 23 23 23 24 24 24 25 25 26 26 26 27 27 27 28 28 28 29 29 30 30 30 31 31 32 33 34 35 36 37 38 39 41 42 43 45 47 49 51 53 55 57 59 62 65 68 72 75 78 81 84 87 90 94 97 100 102 104 106 108 108 108 108 107 106 105 104 104 103 103 103 104 104 104 104 104 105 105 105 106 107 107 107 107 106
22 22 23 23 23 24 24 25 25 26 26 27 27 27 28 28 28 29 29 29 30 30 31 31 32 33 33 34 35 36 37 38 40 41 42 44 45 47 49 51 53 55 58 61 64 67 70 73 76 79 83 85 88 91 94 97 100 102 104 106 107 108 107 106 104 103 102 102 102 102 102 102 102 103 103 103 103 103 104 104 105 106 107 107 106 104 103
22 23 23 24 24 24 25 25 26 26 27 27 27 28 28 28 28 29 29 29 30 30 31 32 33 34 34 35 36 37 38 40 41 43 44 46 48 50 51 54 56 59 62 65 68 71 75 78 81 83 87 90 93 95 98 100 102 104 105 105 106 105 104 102 101 100 99 99 100 100 101 101 102 102 103 103 103 103 104 105 105 105 105 104 102 101 100
22 22 23 24 24 24 25 25 26 26 27 27 28 28 28 29 29 29 30 30 31 31 32 33 33 34 35 36 37 38 40 41 43 45 46 48 50 51 54 57 60 63 66 69 72 75 79 82 85 88 91 93 96 99 101 103 104 104 104 103 102 101 99 98 98 98 97 97 98 98 100 100 101 101 102 103 103 104 104 104 103 102 102 101 100 99 98
23 24 24 25 25 26 26 27 27 27 28 28 29 29 29 29 30 30 31 31 32 32 33 34 34 35 36 38 39 40 42 43 45 47 48 50 52 54 57 61 64 67 70 73 76 79 83 86 89 92 94 97 99 101 102 103 103 102 101 99 98 97 96 96 96 96 96 96 96 96 97 98 99 100 101 102 102 102 102 101 100 100 99 98 98 97 97
25 25 26 26 26 27 28 28 29 29 30 30 30 31 31 31 32 32 33 33 33 34 35 36 37 38 38 40 41 42 44 45 46 48 50 52 55 58 61 64 67 70 74 77 80 83 87 90 92 95 97 99 101 102 102 102 100 99 97 95 95 94 94 94 94 94 94 95 95 95 96 97 98 100 101 101 100 99 98 97 97 97 97 96 96 95 94
23 24 24 24 25 26 27 27 28 29 29 30 30 31 32 32 33 34 34 34 35 36 37 37 38 39 40 41 42 44 45 46 48 50 53 56 59 62 65 68 71 74 78 81 84 87 90 93 95 97 99 100 100 100 99 97 96 95 94 93 93 92 91 92 92 92 93 93 94 95 96 97 98 100 100 99 98 96 96 95 95 94 94 94 93 92 90
22 22 23 24 25 26 27 28 28 29 29 29 30 30 31 31 32 33 33 34 35 35 37 38 39 40 41 42 44 46 47 49 52 54 57 60 63 65 68 71 75 78 82 85 88 90 93 95 97 99 99 99 98 96 95 93 93 92 91 90 90 89 89 89 89 90 91 92 93 95 96 98 98 99 98 96 95 94 94 94 93 92 92 91 89 88 87
25 26 27 27 28 29 30 31 31 32 32 33 33 33 33 33 33 34 34 35 36 37 38 39 40 42 43 45 47 49 51 53 56 58 61 63 66 68 71 75 78 82 85 88 90 93 95 97 98 98 97 95 94 92 91 90 90 89 88 88 87 87 87 87 88 89 90 92 93 95 96 97 97 96 95 95 94 93 93 92 92 91 89 88 87 86 85
29 30 31 31 32 33 33 34 34 35 36 36 37 38 38 38 38 38 38 38 38 39 40 41 42 44 46 48 50 52 54 56 59 61 63 65 68 71 74 78 81 85 88 91 93 94 96 96 96 95 93 92 90 89 89 88 87 87 86 86 85 86 86 87 88 89 90 92 93 95 95 95 95 94 94 93 93 92 92 92 91 89 88 87 86 86 86
31 31 32 32 33 33 34 35 35 36 37 38 38 39 40 40 40 40 41 41 41 42 43 44 45 47 49 51 53 55 57 59 61 62 65 68 70 74 78 81 85 88 90 92 94 94 94 93 92 90 89 89 88 87 86 85 84 84 84 84 84 85 86 86 88 89 90 92 93 93 93 92 92 92 92 92 91 91 91 90 89 89 88 87 87 87 87
30 30 31 32 32 33 34 35 36 37 37 38 38 39 39 39 40 40 41 42 43 44 45 46 48 50 52 53 55 57 59 60 62 65 68 71 75 79 82 85 87 90 92 92 92 91 90 89 88 87 86 86 85 84 83 82 81 82 82 83 84 85 86 87 89 90 92 92 92 92 92 90 89 89 89 90 90 89 89 88 88 87 87 87 87 87 87
29 30 31 32 32 33 34 35 36 36 37 38 38 38 39 39 40 40 41 42 43 44 46 47 49 51 53 55 56 58 60 63 66 69 73 77 80 83 86 88 89 91 91 90 89 88 86 86 85 84 83 82 81 81 80 80 80 81 82 83 84 86 87 89 91 92 93 93 93 93 92 91 90 89 89 89 89 87 87 87 86 86 86 86 86 86 87
30 31 32 33 34 35 35 36 37 37 38 38 39 39 39 40 40 41 41 42 43 45 47 48 50 53 55 57 59 61 64 68 71 75 78 81 84 86 88 89 90 89 89 87 86 85 84 83 82 81 80 79 79 79 79 80 80 81 82 84 86 87 89 90 92 92 93 93 93 93 93 92 91 91 90 90 89 88 87 86 86 85 85 86 86 87 87
33 34 35 36 37 37 38 38 39 39 40 40 40 40 41 41 41 42 42 43 44 46 48 50 53 55 58 60 63 66 70 73 77 80 82 85 86 88 89 89 88 87 86 85 84 83 82 81 79 78 78 78 78 78 79 80 81 82 84 85 86 88 89 91 92 92 92 93 93 93 93 93 92 92 91 91 90 89 88 87 86 86 86 86 86 87 88
36 37 38 39 40 40 41 42 42 43 43 43 44 44 44 44 44 44 45 46 47 49 51 53 56 59 62 65 68 71 75 78 81 83 85 87 88 88 88 87 85 85 84 84 83 81 80 79 78 77 77 77 78 79 80 81 82 83 85 86 87 88 90 91 91 92 92 92 93 93 93 93 93 92 92 91 91 90 88 87 87 87 86 86 87 88 88
38 40 41 42 43 43 44 45 46 46 47 47 48 48 48 48 48 49 50 50 52 53 55 58 60 63 66 70 73 76 79 82 84 86 88 88 88 87 86 85 84 83 83 82 81 79 78 78 78 77 77 78 78 79 81 82 83 84 86 87 88 89 89 90 91 92 92 93 92 92 93 93 93 93 92 91 90 89 88 88 87 87 87 87 88 88 88
41 42 44 45 46 47 47 48 49 49 50 51 51 51 51 51 52 52 53 54 56 57 60 62 65 68 71 75 78 81 84 86 87 89 89 89 87 86 84 84 83 82 81 81 79 78 78 78 78 78 78 79 79 80 81 83 84 85 86 87 88 89 89 90 91 92 92 92 92 92 92 92 93 93 92 90 89 89 88 88 87 87 87 88 88 89 89
43 44 46 48 49 50 50 51 52 53 54 54 55 55 55 55 55 56 57 58 60 62 64 67 70 73 77 80 83 86 88 89 90 90 89 88 86 85 84 83 82 81 80 80 79 79 78 78 79 79 79 80 80 81 82 83 84 85 86 87 88 89 90 91 91 91 92 91 91 92 92 93 93 92 92 91 90 89 89 88 87 87 88 89 89 88 88
45 47 48 50 51 52 53 54 55 56 57 58 58 58 59 59 59 59 60 62 64 66 69 72 75 78 82 85 88 89 91 92 92 91 89 87 86 85 84 83 82 81 80 80 80 80 80 80 80 80 81 81 82 82 82 83 84 85 86 88 89 90 91 92 91 91 91 91 91 92 93 93 92 92 92 91 90 90 89 89 89 89 89 89 88 87 86
47 49 50 51 53 54 55 57 58 59 60 61 61 62 62 62 62 63 64 66 68 71 73 76 79 83 86 89 91 93 93 94 93 91 89 88 86 85 84 83 82 82 82 82 82 82 82 82 82 82 82 82 82 82 83 84 85 86 87 89 90 91 92 92 91 91 91 91 92 92 92 92 92 92 92 92 91 90 90 90 90 90 90 89 88 87 85
50 51 52 54 55 57 58 59 61 62 63 63 64 64 65 65 66 67 69 70 72 75 77 80 83 87 90 92 94 95 96 95 94 92 90 89 87 86 85 84 83 83 83 84 84 83 83 82 82 81 81 82 82 83 83 85 86 87 88 90 91 92 92 92 92 91 91 92 92 92 93 92 92 92 92 92 92 91 90 90 91 91 91 89 88 87 85
52 53 55 56 58 59 61 62 63 64 65 66 66 67 68 69 70 71 72 74 76 78 81 84 87 90 93 95 96 97 98 97 95 94 92 90 88 87 86 85 85 85 85 85 84 83 82 81 81 81 81 82 83 84 85 86 87 88 89 91 92 92 92 92 92 92 92 93 93 94 93 93 92 92 92 92 91 91 91 91 92 92 92 91 89 87 86
54 55 56 58 59 61 62 64 65 66 67 68 68 69 70 71 73 74 75 77 79 81 84 87 90 93 96 98 99 100 100 99 97 95 93 91 89 88 87 87 86 86 85 84 83 82 82 81 81 81 82 83 84 85 86 87 88 89 90 92 92 93 92 92 92 92 93 93 93 94 94 93 93 92 92 91 91 91 92 93 93 94 93 92 90 88 86
55 56 58 59 61 62 64 65 66 67 68 69 70 72 73 74 75 76 78 80 82 84 87 90 93 96 99 100 102 103 102 100 97 95 93 91 90 89 87 87 86 84 83 82 82 82 82 82 83 83 85 86 86 87 88 89 90 91 92 92 93 93 92 92 92 92 92 92 92 92 92 92 92 91 91 90 90 91 93 94 94 94 93 92 90 88 87
Wind_Direction
272 274 275 276 279 283 288 293 298 301 302 303 303 303 304 304 304 304 305 305 306 306 305 303 300 299 298 297 297 297 297 297 298 299 301 302 303 303 303 302 301 300 300 299 299 300 300 300 300 300 300 299 299 298 297 297 296 296 296 295 295 294 294 294 294 295 295 294 295 296 296 296 295 295 294 292 290 287 286 286 286 287 289 290 291 292 292
270 272 275 278 283 288 293 298 300 301 302 302 302 303 303 303 303 304 305 305 305 304 302 300 299 298 298 298 298 298 299 299 301 302 303 303 303 302 301 301 301 300 300 300 300 301 301 301 301 301 300 300 299 299 298 297 296 295 295 295 295 295 295 295 295 295 295 295 296 296 296 295 294 294 293 292 291 290 290 290 291 291 291 292 292 293 294
272 275 279 284 289 294 298 300 300 300 301 301 301 302 302 302 303 304 304 304 303 302 300 299 299 298 298 299 299 300 301 302 302 303 303 302 301 301 301 301 301 301 301 302 302 302 301 301 300 300 299 299 298 297 296 296 295 295 296 296 296 297 297 297 297 295 294 294 294 294 293 292 291 291 290 289 289 290 291 291 292 292 293 293 293 294 296
278 281 285 290 294 297 299 299 299 300 300 300 301 301 302 302 303 303 303 303 301 300 299 298 298 299 299 300 302 302 302 303 303 302 302 302 301 301 302 302 303 303 303 303 302 301 300 300 299 299 298 298 298 298 298 298 298 298 298 299 299 299 298 298 298 296 295 294 293 292 290 289 289 289 289 288 288 290 290 291 291 292 293 294 295 296 296
282 286 290 294 296 297 297 298 299 299 299 299 300 301 302 303 303 303 302 301 300 299 298 299 299 300 301 302 302 303 303 302 302 302 302 302 303 303 303 303 303 303 303 302 302 301 301 300 300 300 300 300 300 300 300 300 300 300 300 300 300 299 298 298 298 296 295 294 292 291 290 289 289 289 289 289 290 290 291 292 292 293 294 295 297 298 298
286 290 294 295 296 296 297 298 298 298 299 300 301 302 302 302 302 302 301 300 299 299 299 300 301 301 302 303 303 303 302 302 302 303 303 304 304 304 303 303 303 302 302 302 302 302 302 302 302 302 302 302 302 302 301 301 300 300 299 299 299 299 298 298 298 296 295 293 292 291 292 291 290 290 290 290 291 292 293 294 295 296 297 298 298 299 299
291 293 294 295 295 296 297 298 298 298 300 301 302 302 302 302 301 300 300 300 300 301 301 302 302 303 303 303 302 302 302 303 304 304 304 304 304 303 303 303 304 304 304 304 304 304 304 303 304 304 303 303 303 303 302 302 300 300 299 298 298 298 298 297 296 295 294 294 293 293 293 293 293 292 292 293 294 295 296 297 297 298 299 300 300 300 300
292 293 293 294 295 296 297 297 298 299 300 301 301 301 301 301 300 300 301 301 302 302 302 303 303 303 303 303 303 304 304 304 304 304 304 304 304 305 305 305 306 306 306 305 305 304 304 303 303 303 304 304 304 304 303 302 301 300 299 299 299 298 297 296 295 295 295 295 295 295 296 296 296 296 296 296 297 298 298 298 299 299 300 301 300 300 300
291 292 293 294 295 296 297 297 299 300 300 301 300 300 300 300 300 301 302 303 303 303 303 303 303 303 304 304 305 305 305 305 305 305 305 306 306 307 307 307 307 307 307 306 305 304 304 303 303 304 304 305 306 305 304 303 301 300 299 299 298 297 296 295 295 295 295 295 296 296 296 297 297 297 296 297 298 298 298 298 299 299 300 300 300 300 300
291 292 293 294 295 296 297 298 299 300 300 300 300 300 300 301 302 303 304 303 303 303 303 303 304 305 305 306 306 305 305 305 306 307 307 307 308 308 308 308 308 307 306 305 305 304 304 304 304 305 306 306 306 305 304 302 300 299 298 298 297 296 295 294 295 295 295 295 296 296 296 296 296 296 296 297 298 298 299 299 299 300 300 300 300 300 300
291 292 293 295 296 297 298 299 299 300 300 300 300 301 302 303 304 304 303 303 303 303 304 305 305 306 306 306 306 306 306 307 308 308 309 309 308 308 308 307 307 306 306 305 305 305 305 305 306 306 306 306 306 305 303 301 299 298 297 297 296 295 295 294 294 294 295 295 296 297 298 298 298 297 297 298 298 298 299 299 300 300 300 300 300 300 300
292 293 294 296 297 297 298 299 299 300 300 301 302 303 303 303 303 303 303 303 304 305 305 305 306 306 306 307 307 307 308 308 309 309 309 309 308 308 308 308 307 307 307 307 307 307 307 307 307 306 306 306 305 303 302 300 298 297 296 296 295 295 295 295 295 296 296 297 297 298 300 300 300 299 299 299 300 300 300 301 301 301 301 301 301 302 302
293 294 296 296 297 298 298 299 300 301 302 303 304 304 303 303 303 303 304 304 305 305 305 306 306 307 307 307 308 309 309 310 310 310 310 309 309 309 309 309 310 309 309 309 309 309 308 308 308 307 306 305 304 302 300 299 297 297 297 297 297 297 297 298 298 298 299 299 299 299 300 300 300 300 301 301 301 301 301 301 302 301 301 301 301 301 301
294 295 296 296 298 299 300 302 303 303 303 303 303 303 303 303 304 304 304 305 305 305 306 306 307 307 308 309 310 310 311 311 311 311 311 311 311 311 311 312 312 312 312 312 311 311 310 310 309 308 307 306 305 303 302 301 300 299 299 299 299 299 300 300 300 300 300 300 300 301 301 301 301 301 301 301 301 301 301 301 300 300 300 300 300 300 300
294 295 296 298 301 302 303 303 303 303 302 302 302 303 303 304 304 304 305 305 306 306 306 307 309 309 310 311 311 312 312 312 312 312 312 312 313 313 314 314 314 314 314 313 313 313 313 312 311 309 307 305 303 302 301 301 301 301 301 301 301 301 301 301 301 301 302 302 302 302 303 303 302 301 302 302 302 301 301 302 301 301 301 301 301 301 302
295 298 300 301 302 302 302 301 301 301 302 302 302 303 303 304 305 305 306 306 307 307 308 310 311 311 312 313 313 314 313 313 313 314 314 315 315 315 316 316 316 316 316 316 316 315 314 313 311 309 306 304 302 301 300 300 301 301 302 302 302 303 303 303 303 303 303 303 303 303 303 303 302 302 303 303 302 302 302 302 303 303 303 303 303 304 304
298 300 300 300 300 300 300 300 301 301 301 302 303 304 305 305 306 306 307 308 309 310 311 312 313 314 315 315 315 315 315 315 315 316 317 317 317 318 318 318 319 319 319 319 318 318 316 314 312 310 308 306 304 303 303 302 303 303 303 304 305 305 305 305 305 305 305 305 304 304 304 304 303 303 304 303 303 303 303 303 304 304 304 304 305 305 305
298 298 297 298 298 299 300 301 301 301 302 303 304 305 306 306 307 308 309 310 311 312 313 314 315 316 317 316 316 316 316 317 318 319 319 319 320 320 320 321 322 322 322 321 320 319 317 315 314 312 311 309 308 307 306 306 306 305 305 306 306 306 306 306 306 306 306 306 306 306 305 305 304 304 304 303 303 303 304 304 304 304 304 304 305 305 305
296 296 297 298 299 300 300 301 301 302 303 304 305 306 307 308 309 310 311 313 314 315 316 317 317 318 318 317 317 318 319 320 321 321 321 321 322 323 323 323 324 324 323 322 321 321 319 318 316 315 313 312 311 310 309 309 308 308 307 307 307 307 307 307 307 307 307 306 306 305 305 304 304 304 304 304 303 304 304 304 304 305 305 305 306 306 307
296 297 298 299 300 300 301 301 302 304 305 306 307 308 310 311 312 314 315 316 317 317 317 318 319 319 319 319 320 321 322 322 323 323 324 324 324 325 325 325 325 325 325 324 323 322 321 319 318 316 315 314 312 312 311 311 310 310 309 309 309 308 308 308 307 306 306 305 305 304 304 303 303 304 304 304 305 305 305 305 306 306 307 308 309 309 310
297 298 299 300 300 301 302 303 305 306 307 308 309 311 313 314 316 317 318 318 318 319 319 320 320 320 321 322 323 324 325 325 326 326 326 326 326 327 327 327 326 326 325 325 324 323 322 320 319 318 317 316 315 314 313 312 312 311 311 310 310 309 308 307 307 306 305 305 305 305 305 305 305 306 306 306 306 307 307 308 309 309 310 311 311 312 313
299 300 300 301 302 303 304 306 307 308 309 311 312 314 316 318 318 318 319 319 320 321 321 322 323 324 325 326 326 327 327 328 328 328 328 329 328 329 328 328 328 327 327 326 326 325 324 323 321 320 319 318 316 315 314 313 312 312 311 310 309 308 307 307 307 306 306 307 307 307 307 308 308 308 309 309 309 310 310 311 311 312 312 312 313 314 314
300 301 302 303 304 305 306 308 309 311 312 314 316 318 319 320 320 320 321 322 323 324 325 326 327 327 328 328 329 329 329 329 330 330 331 331 331 331 330 330 330 330 329 328 327 326 325 323 322 320 319 318 317 315 314 313 312 311 310 309 309 308 308 308 309 309 309 309 310 310 310 310 310 310 311 311 312 312 312 313 313 313 313 314 314 315 316
303 304 304 305 306 308 309 311 313 314 316 318 320 321 321 322 323 324 325 326 327 328 329 329 330 329 330 330 331 331 331 331 332 332 333 333 333 333 333 332 331 330 329 328 327 326 324 323 321 320 319 317 316 315 313 312 311 311 310 310 310 311 311 311 311 311 311 311 311 311 311 311 311 312 312 313 313 313 313 313 313 313 314 315 316 316 316
306 307 308 309 311 312 314 315 317 319 320 322 323 324 325 326 327 328 329 330 330 330 331 331 331 331 331 332 332 332 332 333 333 334 334 334 334 334 333 331 330 329 328 327 325 324 323 322 320 319 318 316 315 314 313 313 312 312 312 313 313 313 313 313 313 312 312 312 312 312 312 312 313 313 313 313 313 313 313 313 314 315 315 316 317 317 317
311 312 313 315 316 317 319 320 322 323 325 326 327 328 329 330 330 330 331 331 331 331 331 331 331 332 332 332 333 333 334 334 334 335 334 334 333 332 331 330 328 327 326 325 324 323 322 321 319 318 316 316 315 315 315 315 315 315 315 314 314 314 314 313 313 313 313 313 313 313 313 313 313 313 313 313 313 313 314 315 316 316 317 317 318 318 317
316 317 318 319 321 323 325 326 328 329 330 331 332 332 332 332 332 332 332 332 331 331 331 332 332 332 333 333 334 334 334 334 334 334 333 332 331 330 329 328 327 326 325 324 323 322 321 319 318 318 317 317 317 317 317 316 316 316 315 315 314 314 314 314 314 314 314 313 313 313 313 312 312 312 313 314 315 315 316 317 317 318 318 318 318 318 318
321 322 323 326 328 330 332 333 334 335 335 336 336 336 335 335 335 334 333 333 332 332 332 333 333 333 333 334 334 334 334 333 333 332 331 330 329 328 327 326 325 324 324 323 322 321 320 319 319 319 319 319 318 318 317 317 316 315 315 315 314 314 314 315 315 314 314 314 314 314 314 314 314 314 315 316 316 317 318 318 319 319 319 319 318 318 318
328 330 333 335 336 338 338 339 339 339 339 339 338 338 338 337 337 336 335 335 334 334 333 333 333 333 334 333 333 333 332 332 330 330 329 328 327 326 326 325 324 323 322 322 321 321 321 321 320 320 319 318 318 317 316 316 316 315 315 315 315 315 315 315 315 315 315 315 315 315 316 316 316 317 317 318 318 319 320 320 320 320 319 319 319 319 319
338 340 341 341 342 343 342 342 341 341 340 340 340 339 338 338 338 337 336 335 334 334 333 333 333 333 333 332 332 331 330 329 328 328 327 327 326 326 325 324 323 322 322 322 322 322 322 321 320 319 318 318 317 316 316 316 316 316 316 316 316 316 316 316 316 316 316 316 317 317 317 318 318 318 319 320 320 321 321 321 321 320 319 319 319 320 320
345 346 346 346 345 345 344 343 343 342 341 341 340 340 339 338 337 336 336 335 334 333 332 332 332 331 331 330 329 328 328 327 327 327 326 326 325 324 323 323 322 323 323 323 322 322 321 320 319 318 318 317 317 316 316 316 316 317 317 317 317 317 317 317 317 317 318 318 319 319 319 319 319 320 320 321 321 322 322 321 320 320 320 320 321 321 322
351 351 351 350 349 348 347 346 345 344 343 342 341 340 339 338 337 336 334 333 332 332 331 330 330 329 329 328 327 327 327 327 326 326 325 324 323 323 323 323 323 323 323 322 321 320 320 319 318 318 317 317 317 317 317 317 318 318 318 318 318 318 318 318 319 319 319 320 320 319 319 319 320 320 321 321 322 322 321 321 321 321 322 322 323 323 324
356 355 354 353 352 351 350 348 347 346 345 344 342 341 339 338 337 336 334 333 332 331 331 330 330 329 328 327 327 327 327 326 325 324 323 323 323 323 323 323 323 322 321 321 320 319 319 318 318 317 317 317 318 318 318 319 319 319 319 319 319 319 320 320 320 320 320 320 320 320 320 320 320 321 321 322 322 322 322 322 322 323 324 324 324 325 325
358 356 355 354 353 353 352 350 349 348 346 345 343 342 341 340 338 337 336 335 334 333 332 331 330 329 328 328 327 326 325 325 324 323 323 323 323 323 323 322 321 321 320 320 319 319 318 318 318 318 318 318 319 319 319 320 320 320 320 320 320 321 321 321 321 321 321 321 320 321 321 321 322 322 322 323 323 323 323 324 324 325 325 325 326 326 326
1 359 357 356 356 355 354 352 350 348 346 345 344 343 341 340 338 337 335 334 333 332 332 330 330 329 328 328 327 326 326 325 325 324 324 324 323 323 322 321 320 320 319 319 318 318 318 318 318 319 319 320 320 320 320 321 321 321 321 321 321 322 322 322 321 321 321 321 321 321 322 322 323 323 324 324 325 325 325 325 326 326 326 326 327 327 326
6 3 1 360 359 357 355 353 351 350 348 346 345 344 342 340 339 337 336 335 334 334 333 332 331 330 330 329 328 327 327 326 326 325 325 324 323 322 321 320 320 319 319 318 318 318 319 319 320 320 321 321 321 321 321 322 322 322 322 322 323 323 323 322 321 321 321 322 322 323 323 324 324 325 325 326 326 327 327 327 327 327 327 328 328 327 327
8 5 3 1 359 357 355 353 351 349 348 347 346 344 343 341 340 339 338 337 336 334 333 333 332 331 331 330 329 329 328 327 327 326 325 324 323 322 321 320 319 319 319 319 319 320 320 321 321 322 322 322 322 322 322 323 323 323 324 324 324 323 323 322 322 323 323 323 324 324 325 326 326 327 328 328 328 329 329 329 329 329 329 329 329 329 329
7 5 3 1 359 357 354 352 351 349 348 346 345 343 341 340 339 338 337 337 336 335 334 334 333 332 332 331 330 330 329 328 327 326 325 324 323 322 321 320 320 320 320 320 321 321 322 322 323 323 323 323 323 324 324 324 325 325 325 324 324 324 324 324 324 324 325 325 325 325 326 328 329 329 329 330 330 330 330 330 330 331 331 331 331 331 331
6 4 2 360 358 356 354 352 351 350 348 347 344 342 340 338 337 336 335 335 335 335 335 335 334 333 333 332 331 330 329 328 327 326 325 324 323 323 322 321 321 321 321 322 323 323 324 324 324 325 325 325 325 325 325 326 326 325 325 325 325 325 325 326 326 326 326 326 327 328 329 330 330 331 331 331 331 331 332 332 332 332 332 332 332 332 332
6 4 2 360 358 356 354 353 352 350 349 347 345 342 340 338 336 335 334 334 334 334 334 333 333 333 332 332 331 330 329 329 328 327 326 325 325 324 323 323 323 323 324 324 325 326 326 326 326 326 326 326 326 326 326 327 327 326 326 326 327 327 328 328 328 328 328 329 330 330 331 331 332 333 333 332 332 333 333 333 333 333 333 333 333 333 332
5 3 1 360 358 356 355 354 352 350 349 348 345 343 341 339 337 336 335 334 333 333 333 333 333 332 332 332 332 331 330 330 329 328 327 327 326 325 325 325 325 326 326 327 327 328 328 328 328 328 328 328 328 328 328 328 328 328 328 329 329 329 329 329 329 329 330 331 332 332 333 333 334 334 334 334 334 335 335 335 334 335 335 335 334 334 333
4 2 1 360 358 356 354 353 352 350 349 348 346 344 342 341 339 338 336 335 334 333 333 333 333 333 333 333 332 332 331 331 330 329 329 328 327 327 327 328 328 328 329 329 329 330 330 329 330 330 330 330 330 330 330 330 330 330 330 330 330 330 330 330 330 331 332 333 334 334 334 334 335 335 335 335 335 336 336 336 336 336 336 336 335 335 335
1 1 359 358 357 355 354 353 352 350 349 348 346 345 344 342 341 340 339 338 336 335 335 334 334 334 334 334 333 333 332 332 331 331 330 330 330 330 330 331 331 331 331 331 331 332 332 332 332 332 332 332 332 332 331 331 331 331 331 331 331 331 331 331 332 333 334 335 335 335 335 335 336 336 336 336 336 336 337 337 337 337 337 336 336 336 336
359 358 357 356 356 355 354 352 351 350 349 348 347 346 345 344 343 343 342 340 339 338 337 336 336 335 335 335 335 334 334 333 333 332 332 332 333 333 333 333 334 334 334 333 333 333 334 334 334 334 334 334 333 333 333 332 332 332 332 332 331 331 332 333 335 335 336 337 337 336 336 336 337 337 337 337 337 337 337 338 338 338 337 337 337 337 337
356 356 355 354 354 354 353 352 351 350 349 348 347 346 345 345 344 344 343 341 340 339 338 337 337 337 337 336 336 336 336 335 335 335 335 335 335 336 336 336 336 336 335 335 335 335 336 336 336 336 335 335 335 334 334 333 333 333 332 332 332 333 334 336 337 337 337 338 337 337 337 337 338 338 337 337 338 338 338 339 338 338 338 338 338 338 338
354 354 354 353 353 352 351 350 350 349 349 348 347 346 346 345 345 344 343 341 340 339 339 338 339 338 338 338 338 338 337 337 337 337 337 338 338 338 338 338 338 337 337 337 337 337 337 337 337 337 336 336 335 335 334 334 333 333 333 333 334 336 337 338 338 339 339 338 338 338 338 339 338 338 338 338 339 339 339 339 339 339 339 339 339 339 339
352 352 352 351 351 350 350 350 349 349 348 348 347 346 346 345 345 344 343 342 341 340 340 340 340 340 340 340 339 339 339 339 339 339 340 340 340 340 340 339 339 339 339 339 339 339 339 339 338 338 337 336 336 335 335 334 334 335 335 336 337 338 339 339 339 340 339 339 339 339 339 339 339 339 339 339 340 340 340 339 340 340 340 340 340 340 340
350 350 350 349 349 349 349 349 349 349 348 347 347 346 345 345 344 344 343 342 341 341 341 341 341 341 341 340 340 340 340 341 341 341 342 342 342 341 341 341 340 340 341 341 341 340 340 339 338 338 337 336 336 335 336 336 336 337 337 338 339 339 340 340 340 340 340 340 340 340 340 340 340 340 340 340 340 340 340 340 340 340 340 340 340 341 342
348 348 348 348 348 348 348 348 348 348 348 347 346 345 345 345 344 343 343 342 342 342 342 342 342 342 341 341 342 342 342 342 343 343 343 343 343 342 342 342 342 342 342 342 341 340 340 339 338 338 337 336 336 337 337 338 338 338 339 340 340 341 341 341 341 341 341 341 341 341 340 341 341 341 341 341 340 340 341 341 340 340 340 341 342 342 343
346 346 347 347 347 348 348 347 347 347 347 346 345 345 345 344 344 343 343 342 342 342 342 342 342 342 342 343 343 343 344 344 345 345 344 344 343 343 343 343 343 343 342 341 340 340 339 338 338 337 337 338 338 339 339 339 340 340 341 341 341 342 342 342 342 342 342 342 342 342 341 341 342 342 342 341 341 341 341 341 341 341 341 342 343 343 344
344 345 345 346 346 346 346 347 346 346 346 345 345 345 344 344 343 343 343 342 342 342 342 342 342 343 343 344 344 345 345 346 345 345 344 344 344 344 344 344 343 343 342 340 340 339 338 338 339 339 340 340 341 341 341 341 341 342 342 342 342 342 342 343 343 343 343 343 343 342 342 342 342 343 342 342 341 341 342 342 342 342 343 343 343 344 344
342 343 344 345 345 346 346 346 345 345 345 345 344 344 344 343 343 343 342 342 342 342 342 342 343 344 344 345 346 346 346 346 345 345 345 345 345 344 344 343 342 341 340 340 339 339 340 340 341 342 343 343 343 343 343 343 343 343 343 343 343 343 343 343 344 344 344 343 343 343 343 343 343 343 343 342 342 343 343 343 343 344 344 343 343 344 344
Height
10658 10658 10657 10655 10654 10653 10652 10651 10649 10648 10646 10644 10641 10638 10636 10633 10630 10627 10624 10621 10618 10615 10613 10610 10608 10606 10604 10602 10601 10599 10597 10595 10594 10592 10589 10587 10585 10583 10581 10579 10576 10574 10572 10569 10567 10564 10561 10557 10555 10553 10550 10548 10545 10542 10539 10536 10533 10530 10527 10523 10520 10517 10516 10514 10510 10506 10502 10498 10495 10494 10489 10484 10481 10478 10474 10469 10466 10464 10461 10459 10458 10457 10452 10445 10442 10438 10430
10655 10655 10653 10652 10651 10650 10649 10648 10646 10645 10642 10640 10637 10635 10632 10629 10626 10623 10620 10617 10615 10612 10609 10607 10605 10603 10601 10600 10598 10596 10595 10593 10591 10589 10586 10584 10582 10580 10577 10575 10573 10570 10567 10565 10562 10560 10558 10554 10550 10548 10545 10542 10539 10537 10533 10530 10527 10524 10521 10517 10513 10510 10508 10507 10506 10502 10497 10492 10489 10488 10484 10477 10474 10473 10469 10464 10458 10455 10453 10450 10448 10447 10444 10437 10434 10432 10423
10653 10652 10650 10650 10649 10648 10647 10645 10643 10641 10639 10636 10634 10631 10628 10625 10622 10619 10616 10614 10611 10609 10606 10604 10602 10600 10599 10597 10596 10594 10592 10590 10588 10586 10583 10581 10579 10576 10574 10571 10569 10566 10563 10561 10558 10555 10553 10550 10546 10543 10540 10537 10534 10531 10527 10524 10521 10518 10515 10511 10508 10504 10500 10499 10498 10495 10491 10488 10483 10482 10480 10474 10469 10467 10464 10460 10454 10449 10446 10443 10440 10438 10436 10430 10423 10423 10420
10650 10649 10648 10648 10647 10645 10644 10642 10640 10637 10635 10632 10630 10627 10624 10621 10618 10615 10613 10610 10608 10606 10604 10602 10600 10598 10597 10595 10593 10591 10589 10587 10585 10582 10580 10577 10575 10573 10570 10568 10565 10562 10559 10556 10552 10549 10547 10545 10542 10538 10535 10532 10528 10525 10522 10518 10515 10512 10509 10506 10503 10499 10494 10491 10489 10486 10484 10482 10478 10476 10475 10471 10465 10461 10458 10454 10450 10444 10439 10436 10433 10430 10429 10424 10413 10410 10410
10648 10647 10646 10645 10644 10642 10640 10638 10636 10634 10631 10628 10626 10623 10620 10617 10614 10612 10609 10607 10605 10603 10601 10600 10598 10596 10594 10593 10591 10589 10586 10583 10581 10579 10577 10574 10571 10569 10566 10564 10561 10558 10554 10551 10547 10544 10541 10538 10536 10533 10530 10527 10523 10520 10516 10513 10510 10506 10503 10500 10497 10494 10488 10485 10482 10478 10476 10475 10472 10470 10469 10465 10461 10456 10450 10447 10443 10438 10433 10428 10425 10421 10419 10416 10407 10397 10393
10646 10645 10644 10643 10641 10639 10637 10634 10632 10630 10627 10625 10622 10619 10616 10613 10611 10608 10606 10604 10602 10601 10599 10597 10595 10594 10592 10590 10588 10585 10583 10580 10577 10575 10573 10570 10568 10565 10561 10559 10556 10553 10550 10547 10543 10539 10536 10533 10530 10528 10524 10521 10518 10514 10511 10507 10504 10501 10498 10494 10492 10488 10484 10480 10477 10472 10470 10469 10466 10465 10463 10459 10455 10450 10443 10440 10437 10431 10426 10420 10415 10412 10408 10404 10399 10388 10378
10644 10643 10641 10639 10637 10635 10633 10631 10628 10626 10623 10621 10618 10615 10612 10610 10608 10605 10604 10602 10600 10598 10597 10595 10593 10591 10589 10587 10584 10582 10579 10577 10574 10571 10569 10566 10564 10561 10557 10554 10551 10548 10545 10542 10539 10535 10531 10528 10525 10522 10519 10515 10512 10509 10505 10502 10498 10494 10491 10488 10486 10483 10479 10476 10473 10467 10465 10463 10460 10460 10458 10452 10447 10442 10436 10433 10429 10424 10418 10411 10405 10402 10396 10390 10385 10378 10368
10641 10640 10638 10636 10634 10632 10629 10627 10625 10622 10620 10617 10614 10612 10609 10607 10605 10603 10602 10600 10598 10596 10594 10592 10590 10588 10586 10583 10581 10579 10576 10573 10570 10568 10565 10562 10559 10556 10553 10550 10547 10543 10540 10537 10534 10530 10527 10524 10520 10517 10513 10510 10507 10503 10499 10495 10492 10488 10486 10482 10480 10478 10474 10472 10469 10464 10461 10458 10454 10453 10452 10446 10439 10433 10427 10424 10421 10415 10409 10403 10396 10392 10387 10378 10369 10363 10357
10638 10636 10634 10632 10630 10628 10626 10623 10621 10618 10616 10613 10611 10609 10606 10604 10603 10601 10599 10598 10596 10594 10591 10589 10587 10585 10583 10580 10578 10575 10572 10569 10566 10563 10561 10558 10554 10551 10548 10545 10542 10538 10535 10532 10529 10525 10522 10519 10515 10512 10509 10505 10501 10498 10494 10490 10486 10483 10480 10478 10475 10474 10471 10468 10465 10461 10456 10453 10449 10446 10445 10441 10434 10426 10419 10416 10413 10407 10400 10393 10387 10383 10378 10370 10359 10351 10346
10635 10633 10631 10629 10627 10624 10622 10620 10617 10615 10612 10610 10608 10606 10604 10603 10601 10599 10597 10595 10593 10591 10588 10586 10584 10582 10579 10577 10574 10571 10568 10565 10562 10559 10556 10553 10550 10546 10543 10540 10537 10533 10530 10527 10523 10520 10517 10514 10510 10507 10504 10500 10496 10492 10489 10485 10482 10478 10476 10474 10472 10470 10467 10464 10461 10457 10452 10448 10444 10440 10438 10435 10429 10420 10412 10408 10405 10398 10391 10383 10376 10370 10364 10355 10347 10341 10334
10631 10629 10627 10625 10623 10621 10618 10616 10614 10611 10609 10608 10606 10604 10603 10601 10599 10597 10595 10592 10590 10588 10585 10583 10581 10578 10576 10573 10570 10567 10564 10561 10557 10554 10551 10548 10544 10541 10538 10535 10531 10528 10525 10521 10518 10515 10511 10508 10505 10502 10498 10495 10491 10487 10484 10481 10478 10475 10473 10471 10468 10466 10463 10460 10457 10453 10448 10443 10439 10434 10429 10425 10419 10412 10405 10400 10396 10390 10383 10374 10367 10361 10352 10340 10332 10327 10320
10628 10626 10624 10622 10619 10617 10615 10613 10611 10609 10607 10605 10604 10602 10601 10599 10597 10595 10592 10590 10587 10585 10582 10580 10577 10575 10572 10569 10566 10562 10559 10556 10553 10549 10546 10543 10539 10536 10533 10530 10526 10523 10520 10516 10513 10510 10506 10503 10500 10496 10493 10490 10486 10483 10480 10477 10474 10472 10470 10467 10464 10461 10458 10454 10451 10447 10443 10438 10434 10429 10423 10416 10408 10400 10394 10389 10383 10378 10373 10364 10353 10346 10338 10326 10317 10310 10301
10625 10623 10621 10618 10616 10614 10612 10610 10608 10607 10605 10603 10602 10600 10598 10596 10594 10592 10589 10587 10584 10582 10579 10576 10574 10571 10568 10565 10561 10558 10555 10551 10548 10545 10541 10538 10534 10531 10528 10525 10522 10518 10515 10512 10508 10505 10501 10498 10494 10491 10488 10486 10483 10479 10477 10474 10470 10468 10465 10462 10459 10456 10453 10449 10445 10440 10436 10431 10426 10422 10418 10411 10401 10392 10385 10378 10370 10362 10359 10355 10344 10332 10324 10316 10309 10301 10291
10622 10620 10618 10615 10613 10611 10610 10608 10606 10605 10603 10601 10599 10597 10595 10593 10591 10589 10587 10584 10581 10578 10575 10573 10570 10567 10564 10560 10557 10554 10550 10547 10543 10540 10537 10533 10530 10527 10523 10520 10517 10514 10511 10507 10504 10500 10497 10493 10490 10487 10484 10482 10479 10476 10473 10469 10466 10463 10460 10457 10454 10450 10446 10442 10438 10434 10429 10424 10418 10412 10408 10402 10392 10383 10377 10370 10361 10349 10344 10344 10337 10324 10314 10308 10301 10292 10282
10619 10617 10615 10613 10611 10609 10608 10606 10604 10603 10601 10599 10597 10595 10593 10590 10588 10586 10583 10580 10577 10575 10572 10569 10566 10563 10560 10556 10553 10549 10546 10542 10539 10536 10533 10529 10526 10523 10519 10517 10513 10510 10507 10503 10500 10496 10493 10490 10487 10484 10481 10478 10476 10474 10470 10466 10462 10458 10455 10452 10448 10444 10440 10435 10431 10426 10420 10416 10410 10404 10399 10391 10380 10372 10367 10359 10349 10337 10329 10326 10320 10307 10296 10291 10285 10276 10266
10617 10615 10613 10611 10609 10608 10606 10604 10602 10600 10598 10596 10594 10592 10590 10587 10585 10582 10580 10577 10574 10571 10568 10565 10562 10558 10555 10552 10548 10545 10542 10538 10535 10532 10529 10526 10522 10519 10516 10513 10510 10506 10503 10499 10496 10493 10490 10487 10484 10482 10478 10475 10473 10470 10467 10464 10460 10455 10450 10446 10441 10437 10432 10427 10422 10417 10411 10406 10400 10394 10389 10381 10369 10363 10357 10347 10335 10325 10315 10310 10305 10293 10277 10267 10261 10255 10246
10614 10613 10611 10609 10607 10606 10604 10602 10600 10598 10596 10594 10591 10589 10587 10584 10582 10579 10576 10573 10570 10567 10564 10561 10558 10554 10551 10548 10545 10541 10538 10535 10532 10529 10525 10522 10519 10516 10512 10509 10506 10503 10499 10496 10493 10490 10487 10484 10482 10479 10476 10472 10469 10466 10463 10460 10456 10451 10446 10440 10435 10430 10424 10418 10412 10407 10401 10396 10389 10381 10376 10367 10357 10351 10347 10336 10323 10311 10301 10293 10289 10282 10269 10252 10240 10234 10227
10612 10610 10609 10607 10605 10604 10602 10600 10598 10595 10593 10591 10588 10586 10584 10581 10578 10576 10573 10570 10566 10563 10560 10557 10554 10551 10547 10544 10541 10538 10535 10532 10529 10525 10522 10519 10516 10512 10509 10506 10503 10499 10496 10493 10490 10488 10484 10481 10479 10476 10473 10469 10465 10461 10458 10454 10450 10446 10441 10435 10429 10423 10418 10411 10404 10396 10390 10385 10378 10370 10363 10354 10344 10337 10333 10325 10314 10303 10291 10278 10269 10266 10261 10248 10232 10220 10212
10610 10608 10607 10605 10603 10601 10599 10597 10595 10593 10591 10588 10586 10583 10581 10578 10575 10572 10569 10566 10563 10559 10556 10553 10550 10547 10544 10541 10538 10535 10532 10529 10526 10522 10519 10516 10513 10510 10506 10503 10500 10497 10494 10491 10488 10485 10482 10479 10475 10473 10470 10466 10462 10457 10452 10448 10444 10439 10434 10429 10423 10417 10411 10404 10397 10388 10380 10374 10367 10359 10351 10343 10334 10326 10318 10310 10301 10293 10283 10271 10258 10247 10242 10236 10223 10209 10197
10608 10606 10605 10603 10601 10599 10597 10595 10593 10590 10588 10585 10583 10580 10578 10575 10571 10568 10565 10562 10559 10556 10553 10550 10547 10544 10542 10538 10535 10532 10529 10526 10523 10520 10516 10513 10510 10507 10504 10501 10497 10494 10491 10488 10485 10482 10479 10476 10472 10469 10465 10462 10458 10454 10448 10442 10436 10432 10427 10421 10415 10409 10403 10395 10388 10381 10373 10365 10357 10349 10341 10333 10326 10318 10308 10297 10287 10277 10268 10259 10248 10233 10222 10214 10204 10192 10179
10606 10604 10602 10601 10599 10597 10594 10592 10590 10587 10585 10582 10580 10577 10574 10571 10568 10565 10562 10559 10556 10553 10550 10547 10545 10542 10539 10536 10532 10529 10526 10523 10520 10517 10514 10511 10508 10505 10502 10499 10496 10493 10489 10486 10483 10480 10476 10473 10469 10465 10461 10456 10452 10448 10443 10437 10430 10424 10419 10413 10406 10400 10394 10386 10378 10370 10364 10356 10346 10335 10326 10318 10310 10303 10294 10283 10271 10260 10249 10239 10230 10218 10205 10194 10184 10174 10162
10604 10602 10600 10598 10596 10594 10592 10589 10587 10584 10582 10579 10577 10574 10571 10568 10565 10562 10559 10556 10553 10551 10548 10545 10542 10539 10536 10533 10530 10527 10524 10521 10518 10515 10512 10509 10505 10502 10499 10496 10493 10490 10487 10484 10481 10477 10473 10469 10465 10461 10456 10451 10446 10441 10436 10431 10425 10418 10412 10405 10398 10391 10385 10378 10368 10358 10350 10344 10335 10322 10311 10301 10292 10283 10274 10263 10252 10240 10228 10217 10207 10198 10188 10178 10168 10160 10150
10601 10599 10597 10595 10593 10591 10589 10586 10584 10581 10579 10576 10573 10571 10568 10565 10563 10560 10557 10554 10551 10548 10545 10542 10539 10536 10533 10531 10528 10525 10522 10519 10516 10512 10509 10506 10503 10500 10497 10493 10490 10487 10484 10480 10477 10473 10469 10465 10460 10455 10451 10446 10440 10434 10428 10423 10417 10410 10404 10397 10390 10381 10373 10366 10357 10347 10337 10327 10319 10308 10295 10283 10274 10264 10253 10243 10233 10222 10212 10200 10189 10180 10172 10163 10154 10145 10137
10599 10597 10595 10593 10591 10588 10586 10584 10581 10579 10576 10573 10571 10568 10565 10563 10560 10557 10554 10552 10549 10546 10543 10540 10537 10534 10531 10528 10525 10523 10519 10516 10513 10510 10507 10504 10501 10497 10494 10490 10487 10483 10480 10476 10473 10469 10464 10460 10455 10450 10444 10439 10433 10427 10421 10414 10408 10401 10394 10387 10380 10372 10363 10354 10344 10334 10324 10313 10303 10293 10280 10268 10258 10249 10238 10228 10218 10208 10198 10188 10177 10166 10157 10149 10141 10132 10123
10596 10594 10592 10590 10588 10585 10583 10581 10578 10576 10573 10571 10568 10566 10563 10560 10558 10555 10552 10549 10546 10544 10541 10538 10535 10532 10529 10527 10524 10521 10518 10514 10511 10508 10505 10502 10498 10495 10491 10487 10484 10480 10476 10472 10468 10464 10459 10454 10449 10443 10438 10432 10426 10420 10413 10406 10399 10391 10384 10376 10368 10360 10351 10342 10332 10321 10311 10300 10290 10280 10267 10254 10242 10234 10225 10216 10207 10197 10187 10178 10168 10157 10145 10135 10126 10117 10108
10594 10592 10589 10587 10585 10583 10581 10578 10576 10573 10571 10569 10566 10564 10561 10558 10556 10553 10550 10547 10544 10542 10539 10536 10533 10530 10528 10525 10522 10519 10516 10512 10509 10506 10503 10499 10496 10492 10488 10484 10480 10476 10472 10468 10463 10459 10454 10449 10443 10437 10431 10425 10418 10411 10404 10396 10388 10381 10373 10364 10356 10347 10338 10330 10321 10309 10298 10287 10277 10268 10258 10246 10233 10223 10214 10206 10197 10187 10177 10167 10157 10147 10136 10125 10114 10103 10092
10592 10590 10587 10585 10583 10581 10578 10576 10574 10571 10569 10567 10564 10562 10559 10557 10554 10551 10549 10546 10543 10540 10537 10534 10532 10529 10526 10523 10520 10516 10513 10510 10507 10504 10500 10497 10493 10489 10485 10481 10476 10472 10468 10463 10459 10454 10449 10443 10437 10430 10424 10417 10409 10402 10394 10386 10377 10369 10361 10352 10343 10334 10325 10317 10307 10297 10286 10275 10265 10257 10249 10240 10229 10217 10206 10197 10187 10177 10166 10156 10146 10135 10125 10115 10105 10093 10080
10590 10588 10585 10583 10581 10579 10576 10574 10572 10569 10567 10565 10562 10560 10557 10555 10552 10550 10547 10544 10541 10539 10536 10533 10530 10527 10524 10521 10518 10515 10511 10508 10505 10501 10497 10493 10489 10485 10481 10477 10473 10468 10463 10459 10453 10448 10442 10436 10429 10422 10415 10408 10401 10393 10385 10376 10367 10357 10349 10340 10330 10320 10312 10303 10294 10285 10275 10264 10253 10243 10234 10226 10216 10205 10195 10185 10175 10166 10155 10145 10134 10123 10112 10101 10091 10082 10071
10588 10585 10583 10581 10579 10577 10574 10572 10570 10568 10565 10563 10561 10558 10556 10553 10551 10548 10545 10543 10540 10537 10534 10531 10529 10526 10523 10519 10516 10513 10509 10506 10502 10498 10494 10490 10486 10482 10478 10473 10469 10464 10459 10453 10448 10442 10435 10429 10422 10415 10407 10400 10392 10384 10375 10367 10358 10348 10338 10329 10318 10308 10299 10290 10281 10271 10262 10251 10240 10230 10220 10211 10201 10191 10181 10172 10163 10153 10143 10131 10120 10109 10098 10088 10078 10068 10059
10586 10584 10581 10579 10577 10575 10573 10571 10569 10566 10564 10562 10559 10557 10554 10552 10549 10547 10544 10541 10539 10536 10533 10530 10527 10524 10521 10517 10514 10510 10506 10503 10499 10495 10491 10487 10483 10478 10474 10469 10464 10459 10453 10447 10441 10435 10428 10421 10414 10407 10399 10390 10382 10373 10364 10356 10347 10338 10328 10318 10307 10297 10287 10277 10268 10259 10250 10240 10229 10217 10207 10198 10188 10177 10167 10158 10149 10140 10130 10120 10110 10099 10088 10078 10068 10058 10048
10585 10583 10581 10578 10577 10574 10572 10570 10568 10566 10563 10561 10558 10555 10553 10550 10547 10545 10542 10539 10537 10534 10531 10528 10525 10521 10518 10515 10511 10508 10504 10500 10496 10492 10488 10483 10479 10474 10469 10464 10459 10453 10447 10441 10434 10428 10420 10413 10406 10398 10389 10381 10372 10363 10353 10344 10335 10325 10316 10305 10294 10285 10275 10266 10256 10247 10238 10229 10219 10207 10195 10185 10176 10166 10156 10146 10138 10130 10120 10110 10099 10089 10078 10067 10057 10047 10037
10584 10582 10580 10578 10576 10574 10571 10569 10567 10564 10562 10559 10557 10554 10551 10549 10546 10543 10541 10538 10535 10532 10529 10525 10522 10519 10515 10512 10509 10505 10501 10497 10493 10489 10484 10480 10475 10470 10465 10459 10453 10447 10441 10434 10427 10420 10412 10404 10396 10388 10380 10371 10362 10352 10341 10332 10322 10313 10303 10294 10284 10274 10265 10255 10245 10236 10227 10218 10209 10199 10188 10177 10167 10158 10149 10140 10131 10122 10112 10101 10089 10078 10067 10057 10046 10035 10025
10584 10582 10580 10578 10575 10573 10571 10568 10566 10563 10561 10558 10555 10552 10550 10547 10544 10541 10539 10536 10533 10530 10527 10523 10520 10517 10513 10510 10506 10502 10499 10495 10490 10486 10481 10476 10471 10465 10459 10453 10447 10440 10434 10427 10420 10412 10404 10395 10387 10378 10370 10361 10351 10341 10330 10320 10310 10301 10292 10283 10273 10264 10255 10245 10235 10225 10216 10207 10198 10189 10181 10172 10161 10151 10141 10132 10124 10114 10103 10092 10080 10069 10057 10047 10037 10026 10016
10584 10582 10580 10578 10576 10573 10571 10568 10565 10563 10560 10557 10554 10551 10548 10546 10543 10540 10537 10534 10531 10528 10525 10521 10518 10515 10511 10508 10504 10500 10496 10492 10487 10482 10477 10472 10466 10460 10454 10447 10440 10433 10426 10419 10411 10403 10395 10386 10376 10367 10359 10349 10339 10329 10319 10310 10299 10290 10281 10272 10263 10254 10245 10235 10225 10215 10207 10198 10188 10178 10170 10162 10153 10142 10132 10123 10114 10103 10092 10081 10071 10061 10050 10039 10029 10019 10010
10585 10583 10581 10578 10576 10573 10570 10568 10565 10562 10559 10556 10553 10550 10548 10545 10542 10538 10535 10532 10529 10526 10523 10519 10516 10513 10509 10505 10501 10497 10493 10489 10484 10479 10473 10467 10461 10455 10448 10441 10433 10426 10418 10411 10403 10394 10385 10376 10366 10355 10347 10338 10328 10318 10309 10299 10289 10280 10272 10264 10255 10246 10238 10228 10218 10209 10200 10191 10181 10171 10162 10153 10143 10133 10123 10113 10103 10093 10082 10071 10062 10052 10042 10032 10023 10013 10004
10585 10583 10580 10578 10575 10572 10570 10567 10564 10561 10558 10555 10552 10549 10546 10543 10540 10537 10534 10530 10527 10524 10520 10517 10513 10509 10506 10502 10498 10493 10489 10484 10479 10473 10468 10462 10455 10449 10442 10434 10426 10418 10409 10401 10393 10384 10374 10365 10354 10344 10335 10327 10317 10308 10299 10290 10281 10271 10263 10254 10246 10238 10229 10221 10212 10203 10193 10184 10174 10164 10154 10145 10135 10124 10113 10102 10092 10083 10072 10062 10053 10043 10033 10024 10015 10006 9997
10585 10583 10580 10577 10575 10572 10569 10566 10563 10560 10557 10554 10551 10547 10544 10541 10538 10534 10531 10528 10525 10521 10518 10514 10510 10506 10502 10498 10494 10489 10484 10479 10474 10468 10462 10456 10450 10443 10435 10427 10419 10409 10400 10391 10383 10374 10364 10354 10344 10334 10325 10316 10307 10298 10290 10281 10272 10262 10253 10245 10237 10229 10221 10213 10204 10195 10186 10177 10167 10157 10147 10137 10125 10114 10103 10092 10082 10072 10062 10052 10043 10033 10023 10014 10005 9995 9986
10585 10583 10580 10577 10574 10572 10569 10566 10563 10559 10556 10553 10549 10546 10542 10539 10536 10532 10529 10526 10522 10518 10515 10511 10507 10503 10498 10494 10489 10484 10479 10474 10469 10463 10457 10450 10443 10436 10428 10419 10410 10400 10391 10382 10373 10364 10355 10344 10335 10325 10316 10306 10297 10288 10279 10271 10263 10254 10246 10238 10230 10222 10213 10205 10196 10187 10178 10169 10159 10150 10140 10130 10119 10107 10095 10084 10074 10064 10054 10043 10033 10023 10013 10003 9994 9985 9976
10585 10583 10580 10577 10575 10572 10569 10565 10562 10559 10555 10552 10549 10545 10542 10538 10534 10531 10527 10523 10519 10515 10511 10507 10503 10498 10494 10489 10484 10479 10474 10469 10463 10457 10450 10443 10436 10428 10419 10410 10401 10391 10381 10372 10363 10354 10345 10335 10326 10317 10307 10298 10289 10280 10271 10263 10256 10248 10239 10230 10222 10213 10204 10195 10186 10177 10167 10158 10149 10139 10129 10120 10111 10101 10089 10078 10068 10058 10047 10036 10026 10016 10006 9996 9986 9977 9968
10586 10583 10580 10577 10574 10571 10568 10565 10562 10558 10555 10551 10548 10544 10540 10536 10533 10529 10525 10520 10516 10512 10508 10504 10500 10495 10490 10486 10481 10475 10469 10463 10457 10450 10443 10435 10427 10418 10409 10399 10390 10380 10371 10361 10353 10344 10336 10326 10317 10308 10299 10290 10281 10273 10264 10256 10248 10240 10231 10222 10213 10204 10194 10185 10175 10166 10156 10146 10136 10126 10115 10106 10097 10089 10079 10069 10060 10051 10040 10029 10019 10010 10000 9990 9980 9970 9961
10585 10582 10580 10577 10574 10571 10567 10564 10561 10557 10554 10550 10546 10542 10538 10534 10530 10526 10522 10518 10514 10509 10505 10500 10496 10491 10486 10481 10476 10470 10463 10457 10450 10443 10434 10425 10417 10407 10398 10389 10379 10370 10360 10351 10343 10335 10326 10317 10308 10300 10291 10282 10273 10264 10256 10247 10239 10230 10222 10213 10204 10194 10185 10175 10165 10156 10146 10136 10125 10114 10104 10094 10085 10077 10068 10057 10048 10040 10031 10022 10012 10002 9993 9983 9973 9963 9953
10584 10581 10578 10575 10572 10569 10566 10563 10559 10556 10552 10548 10544 10540 10536 10532 10528 10523 10519 10515 10511 10506 10502 10497 10492 10487 10481 10476 10470 10464 10457 10449 10442 10434 10425 10416 10407 10397 10388 10378 10369 10359 10350 10341 10333 10325 10317 10308 10300 10292 10283 10274 10265 10256 10247 10238 10230 10221 10213 10205 10196 10187 10177 10167 10157 10147 10137 10127 10116 10105 10094 10084 10074 10066 10057 10047 10037 10029 10021 10013 10003 9994 9985 9975 9966 9956 9946
10583 10580 10577 10574 10571 10567 10564 10560 10557 10553 10549 10545 10541 10536 10532 10528 10524 10520 10515 10511 10507 10502 10497 10492 10487 10482 10476 10470 10463 10457 10450 10442 10434 10425 10416 10407 10397 10388 10378 10369 10359 10350 10341 10332 10324 10315 10307 10299 10290 10283 10275 10266 10257 10248 10239 10231 10222 10213 10205 10197 10188 10179 10169 10159 10149 10139 10128 10118 10107 10097 10086 10076 10065 10056 10048 10039 10029 10020 10012 10003 9994 9985 9976 9968 9958 9948 9938
10581 10578 10575 10572 10569 10565 10562 10558 10554 10550 10546 10541 10537 10533 10528 10524 10520 10515 10511 10506 10501 10497 10492 10487 10482 10476 10470 10464 10457 10450 10442 10434 10425 10416 10407 10397 10387 10378 10369 10359 10350 10341 10332 10323 10315 10307 10299 10290 10282 10273 10265 10257 10249 10241 10232 10223 10215 10206 10197 10188 10180 10171 10161 10151 10141 10130 10120 10109 10099 10089 10079 10069 10058 10048 10040 10031 10022 10013 10005 9996 9987 9978 9969 9960 9950 9940 9930
10579 10576 10573 10569 10566 10562 10559 10555 10551 10547 10542 10538 10533 10529 10525 10520 10516 10511 10507 10502 10497 10492 10487 10481 10476 10470 10463 10456 10449 10441 10433 10425 10416 10407 10397 10388 10378 10368 10359 10350 10341 10332 10323 10315 10306 10298 10291 10283 10275 10267 10259 10251 10243 10234 10225 10217 10208 10199 10190 10181 10172 10163 10154 10144 10133 10123 10113 10103 10093 10083 10073 10063 10052 10042 10033 10025 10016 10007 9998 9990 9982 9972 9963 9953 9943 9932 9922
10577 10574 10571 10567 10563 10560 10556 10552 10548 10543 10539 10534 10529 10525 10520 10516 10512 10507 10502 10497 10492 10487 10481 10475 10469 10463 10456 10448 10441 10433 10424 10415 10406 10397 10388 10378 10369 10360 10351 10342 10333 10325 10316 10307 10299 10291 10284 10276 10268 10260 10252 10244 10236 10228 10219 10210 10201 10192 10183 10173 10164 10154 10145 10135 10126 10116 10105 10096 10086 10076 10066 10056 10046 10035 10026 10018 10009 10000 9990 9982 9974 9965 9955 9946 9937 9928 9917
10575 10572 10568 10565 10561 10557 10553 10549 10544 10540 10535 10530 10525 10521 10516 10512 10507 10503 10498 10492 10487 10481 10475 10469 10462 10455 10448 10441 10433 10424 10415 10406 10397 10388 10379 10370 10360 10351 10343 10334 10325 10317 10309 10301 10293 10284 10277 10269 10261 10253 10245 10237 10229 10221 10212 10203 10194 10184 10175 10165 10155 10146 10136 10127 10118 10108 10098 10088 10079 10069 10059 10049 10039 10029 10018 10009 10000 9992 9983 9974 9965 9957 9948 9939 9931 9923 9913
10573 10570 10566 10563 10559 10554 10550 10545 10541 10536 10531 10526 10521 10517 10512 10507 10503 10498 10493 10487 10481 10475 10469 10463 10456 10448 10441 10433 10424 10416 10407 10398 10389 10379 10371 10362 10353 10344 10336 10327 10318 10309 10301 10293 10285 10277 10269 10261 10253 10245 10237 10229 10222 10213 10205 10195 10186 10177 10167 10158 10148 10138 10129 10119 10110 10101 10092 10082 10072 10063 10053 10043 10033 10023 10012 10001 9992 9984 9976 9966 9957 9949 9942 9934 9925 9916 9906
10570 10567 10563 10560 10555 10551 10547 10542 10537 10533 10528 10523 10518 10513 10508 10503 10498 10492 10487 10481 10475 10469 10463 10456 10449 10442 10434 10425 10417 10408 10398 10389 10380 10371 10362 10354 10345 10337 10329 10321 10312 10304 10295 10286 10279 10271 10264 10256 10248 10240 10231 10223 10215 10206 10197 10188 10179 10169 10160 10150 10140 10131 10121 10112 10103 10094 10085 10075 10065 10056 10046 10037 10027 10017 10006 9995 9985 9976 9968 9960 9950 9941 9933 9925 9916 9907 9898
10568 10564 10560 10556 10552 10548 10543 10539 10534 10529 10524 10519 10514 10509 10503 10498 10492 10487 10481 10475 10469 10463 10456 10449 10442 10435 10427 10418 10409 10400 10390 10380 10371 10362 10354 10346 10338 10330 10322 10313 10306 10298 10289 10281 10273 10266 10258 10251 10243 10235 10226 10217 10208 10199 10190 10181 10172 10163 10153 10143 10133 10123 10114 10105 10095 10086 10077 10067 10057 10047 10038 10029 10020 10010 10000 9990 9980 9970 9962 9954 9944 9933 9923 9914 9906 9898 9890
10565 10561 10557 10553 10549 10545 10540 10535 10531 10526 10521 10515 10510 10505 10499 10494 10488 10482 10476 10470 10463 10457 10450 10443 10436 10428 10420 10411 10402 10392 10383 10373 10364 10355 10347 10339 10331 10323 10315 10307 10299 10292 10284 10276 10268 10260 10253 10245 10237 10228 10219 10210 10201 10192 10183 10174 10165 10155 10146 10137 10127 10117 10108 10098 10089 10079 10070 10061 10051 10041 10031 10022 10013 10004 9994 9985 9975 9965 9955 9945 9935 9925 9914 9905 9897 9890 9883
10562 10559 10555 10550 10546 10541 10537 10532 10527 10522 10517 10511 10506 10500 10495 10489 10483 10477 10471 10465 10458 10451 10444 10436 10428 10420 10412 10403 10394 10385 10375 10366 10357 10349 10341 10333 10325 10317 10309 10302 10294 10287 10280 10272 10263 10255 10247 10238 10230 10221 10212 10203 10194 10185 10175 10166 10157 10148 10139 10130 10121 10111 10102 10093 10084 10075 10066 10056 10047 10037 10027 10017 10008 9999 9990 9980 9970 9960 9949 9938 9929 9919 9909 9899 9890 9883 9877